Regional Weather Roundup
Issued by NWS Grand Forks, ND

Home | Current Version | Previous Version | Text Only | Print | Product List | Glossary Off
Versions: 1 2 3 4 5 6 7 8 9 10 11 12 13 14 15 16 17 18 19 20 21 22 23 24 25 26 27 28 29 30 31 32 33 34 35 36 37 38 39 40 41 42 43 44 45 46 47 48 49 50

000
ASUS43 KFGF 022031
RWRFGF
PRAIRIE TO PINES  WEATHER ROUNDUP
NATIONAL WEATHER SERVICE EASTERN NORTH DAKOTA/GRAND FORKS ND
300 PM CDT TUE JUN 02 2015

 **SATELLITE DATA USED TO AUGMENT SKY COVER AT AUTOMATED STATIONS**
 *****  WEATHER ACROSS EASTERN NORTH DAKOTA  *****

CITY           SKY/WX    TMP DP  RH WIND       PRES   REMARKS
GRAND FORKS    CLOUDY    66  59  78 S5        29.80F
GRAND FRKS AFB CLOUDY    67  58  74 S9        29.80F
GRAND FRKS NWS   N/A     66 N/A N/A S10         N/A
DEVILS LAKE    CLOUDY    66  57  72 NE16      29.79S
FARGO          CLOUDY    74  61  63 S18       29.79F
WAHPETON ARPT  MOCLDY    77  55  47 S21G30    29.79F
$$

 ***** WEATHER ACROSS CENTRAL AND WESTERN NORTH DAKOTA  *****

CITY           SKY/WX    TMP DP  RH WIND       PRES   REMARKS
BISMARCK       CLOUDY    75  64  68 NE6       29.74S
MINOT          CLOUDY    62  58  86 NE15      29.79S
JAMESTOWN      PTSUNNY   76  63  64 S12       29.75F
MINOT AFB      CLOUDY    62  62 100 E16       29.79F
GARRISON         N/A     72  61  68 NE9       29.77S
WILLISTON      LGT RAIN  58  55  90 NE7G20    29.77S
DICKINSON      PTSUNNY   77  61  57 W18       29.75S
HETTINGER      MOSUNNY   78  58  49 W17       29.79S
$$

 *****  OTHER AIRPORT OBSERVATIONS IN OUR AREA  *****

CITY           SKY/WX    TMP DP  RH WIND       PRES   REMARKS
WALHALLA       LGT RAIN  61  61 100 MISG      29.83S
GRAFTON AIRPOR CLOUDY    64  61  88 N6        29.82S
VALLEY CITY AR MOCLDY    75  66  73 SE10G16   29.77F
CANDO          CLOUDY    64  61  88 NE14      29.81F
CAVALIER APRT  RAIN      61  61 100 NE5       29.83R VSB 1/4
GWINNER        NOT AVBL
ROLLA          RAIN      57  57 100 NE14      29.85F
 ***** THE ABOVE OBSERVATIONS ARE NON NWS ARE NOT QUALITY
       CONTROLLED AND MAY MIS-REPORT RAIN FOR SNOW...
$$

  *****  WEATHER ACROSS NORTHERN MINNESOTA  *****

CITY           SKY/WX    TMP DP  RH WIND       PRES   REMARKS
FLAG ISLAND    CLOUDY    61  55  82 SE12      29.83F
WARROAD        CLOUDY    64  61  88 S8        29.85R
ROSEAU         DRIZZLE   64  59  82 S9        29.83F
HALLOCK        RAIN      63  61  94 N6        29.82F
THF RVR FALLS  CLOUDY    66  61  82 S6        29.84S
BAUDETTE       LGT RAIN  61  58  90 E6        29.86F
WASKISH        CLOUDY    64  61  88 E5        29.85S
CROOKSTON      CLOUDY    68  61  77 S6        29.82F
STEPHEN NDAWN    N/A     66  61  82 SW3         N/A
GREENBUSH NDAW   N/A     64  61  88 S7          N/A
$$
  *****  WEATHER ACROSS CENTRAL AND WEST MINNESOTA  *****

CITY           SKY/WX    TMP DP  RH WIND       PRES   REMARKS
FOSSTON        CLOUDY    66  61  82 SW7       29.85S
BEMIDJI        CLOUDY    71  55  56 S10       29.86R
PARK RAPIDS    CLOUDY    73  52  47 S20G28    29.85S
ELBOW LAKE     FAIR      77  57  50 S29G37    29.82F
WADENA         CLOUDY    70  54  56 S17       29.88S
DETROIT LAKES  CLOUDY    70  55  60 S21G28    29.84S
MOORHEAD       CLOUDY    75  57  53 S24       29.80S
FERGUS FALLS   CLOUDY    75  55  50 S23G30    29.82F
MORRIS MN      PTSUNNY   81  57  44 S31G37    29.80F
STAPLES        CLOUDY    70  48  46 S16G28    29.90R
$$
  *****  WEATHER ELSEWHERE ACROSS MINNESOTA  *****

CITY           SKY/WX    TMP DP  RH WIND       PRES   REMARKS
DULUTH         MOSUNNY   73  49  42 SE15      29.96F
INTRNTL FALLS  CLOUDY    60  55  83 E3        29.88F
ELY            PTSUNNY   72  41  33 S12       29.92F
CLOQUET        MOSUNNY   73  45  35 S14G20    29.94F
WHEATON        PTSUNNY   77  57  50 S25G36    29.79F
BRAINERD       CLOUDY    73  51  46 S22G30    29.90F
HIBBING        PTSUNNY   74  47  38 S10G22    29.91F
ALEXANDRIA     CLOUDY    72  54  53 SE21G28   29.88S
SAINT CLOUD    CLOUDY    72  52  49 S20G26    29.92F
MINNEAPOLIS    CLOUDY    74  53  48 SE17      29.98F
$$

  *****  WEATHER ACROSS SOUTH DAKOTA  *****

CITY           SKY/WX    TMP DP  RH WIND       PRES   REMARKS
SIOUX FALLS    PTSUNNY   77  62  59 S18G26    29.87F
BROOKINGS      MOSUNNY   77  61  57 S22G31    29.85F
WATERTOWN      MOSUNNY   78  61  55 S29G36    29.80F
HURON          SUNNY     83  60  45 S21G31    29.75F
SISSETON         N/A     82  61  48 S26G37    29.76F
ABERDEEN       SUNNY     82  63  52 S23       29.73F
MITCHELL       MOSUNNY   83  61  47 S17G24    29.79F
PIERRE         SUNNY     87  60  40 SW13      29.70F
MOBRIDGE       SUNNY     85  61  44 S8        29.68F
RAPID CITY     SUNNY     80  61  52 NE15      29.82F
$$

  *****  SOME WEATHER IN NEARBY STATES *****

CITY           SKY/WX    TMP DP  RH WIND       PRES   REMARKS
GLASGOW MT     LGT RAIN  57  51  80 N8        29.89S
GREAT FALLS MT CLOUDY    66  46  48 SW14      29.86F
CHEYENNE WY    MOSUNNY   81  33  17 W20G25    29.97F
SCOTTSBLUFF NE MOSUNNY   83  60  45 SE6       29.84F
OMAHA NE       CLOUDY    74  60  61 SE17      29.95F
DES MOINES IA  CLOUDY    69  55  60 S13       30.04S
DAVENPORT IA   SUNNY     74  48  39 SE9G18    30.08F
CHICAGO IL     MOSUNNY   68  40  35 E8        30.11F
EAU CLAIRE WI  SUNNY     74  48  39 S12       30.04F
LA CROSSE WI   PTSUNNY   74  51  44 S10G16    30.06S
$$

  *****  SOME NATIONAL WEATHER *****

CITY           SKY/WX    TMP DP  RH WIND       PRES   REMARKS
LA GUARDIA NY  LGT RAIN  54  50  86 NE12      30.12F
RALEIGH NC     PTSUNNY   79  67  66 S7        29.98S
ATLANTA GA     MOSUNNY   83  61  47 W3        29.97F
NEW ORLEANS LA MOSUNNY   87  62  43 N10       29.95F
OKLAHOMA CITY  PTSUNNY   88  66  48 S20G25    29.95F HX  90
ALBUQUERQUE NM MOSUNNY   86  23  10 NW9G20    30.08F
SALT LAKE CITY MOSUNNY   78  46  32 N13       29.94F
LOS ANGELES CA MOSUNNY   69  57  65 W14       29.99S
BOISE ID       MOSUNNY   72  41  32 W8        29.98F
SEATTLE WA     CLOUDY    62  51  67 SW12      30.04R
$$

*** WEATHER ACROSS MANITOBA...SASKATCHEWAN AND ONTARIO ***
                ***ONTARIO***

CITY           SKY/WX    TMP DP  RH WIND       PRES   REMARKS
GERALDTON      LGT RAIN  66  32  28 SW12G20   29.99F
THUNDER BAY    CLOUDY    66  41  39 S10       30.00F
SIOUX LOOKOUT  PTSUNNY   66  52  59 SW8       29.88S
TORONTO        MOSUNNY   64  46  52 SE12      30.17F
BIG TROUT LK   SUNNY     64  39  39 W15G23    29.76F
PICKLE LAKE    PTSUNNY   66  46  48 S14G20    29.84S
DRYDEN         CLOUDY    64  52  63 S16       29.87S
KENORA         CLOUDY    68  55  64 S10       29.86S
$$
                *** MANITOBA***

CITY           SKY/WX    TMP DP  RH WIND       PRES   REMARKS
BRANDON        CLOUDY    66  48  52 NE18      29.88F
DAUPHIN        SUNNY     64  39  39 NE13      29.93S
ISLAND LAKE    MOSUNNY   61  36  39 W13       29.83
PILOT MOUND      N/A     61  57  88 NE16        N/A
THE PAS        MOSUNNY   61  30  31 NW14G23   29.94S
THOMPSON       PTSUNNY   55  30  38 NW18G29   29.83S
WINNIPEG       CLOUDY    66  54  63 NE17      29.84F
LYNN LAKE      MOSUNNY   52  28  40 NW21G32   29.89S
CHURCHILL      LGT RAIN  41  37  87 W20G32    29.57R
GILLAM         PTSUNNY   46  36  66 W17G26    29.77R
$$
                ***SASKATCHEWAN***

CITY           SKY/WX    TMP DP  RH WIND       PRES   REMARKS
ESTEVAN        LGT RAIN  57  54  88 NE18G26   29.85F
KINDERSLEY     CLOUDY    63  41  45 E8G18     29.99F
LLOYDMINSTER   CLOUDY    55  36  47 SE7       30.03F
PRINCE ALBERT  CLOUDY    61  34  36 VRB9G21   30.01F
REGINA         CLOUDY    63  39  42 NE13      29.94S
YORKTON        SUNNY     66  32  28 NE13G18   29.92F
N. BATTLEFORD  MOSUNNY   61  36  39 VRB3      30.04F
LA RONGE       MOSUNNY   61  30  31 W9G17     30.00F
SASKATOON      CLOUDY    63  34  34 N13       30.01F
SWIFT CURRENT  SUNNY     59  45  58 E9G17     29.97S
$$
NOTE: THESE ARE AUTOMATED STATIONS WITH LIMITED QUALITY CONTROL
      "FAIR" INDICATES FEW OR NO CLOUDS BELOW 12,000 FEET WITH NO
      SIGNIFICANT WEATHER AND/OR OBSTRUCTIONS TO VISIBILITY.
      SKY/WX - SKY CONDITION AND SIGNIFICANT WEATHER.
      TMP - AIR TEMPERATURE.    DP   - DEWPOINT TEMPERATURE.
      RH  - RELATIVE HUMIDITY.  PRES - PRESSURE.
      HX  - HEAT INDEX.         WCI  - WIND CHILL INDEX.
$


USA.gov is the U.S. government's official web portal to all federal, state and local government web resources and services.